Regional Weather Roundup
Issued by NWS

Home | Current Version | Previous Version | Graphics & Text | Print | Product List | Glossary On
Versions: 1 2 3 4 5 6 7 8 9 10 11 12 13 14 15 16 17 18 19 20 21 22 23 24 25 26 27 28 29 30 31 32 33 34 35 36 37 38 39 40 41 42 43 44 45 46 47 48 49 50
000
ASUS43 KMPX 231601
RWRMN
WEATHER ROUNDUP FOR MINNESOTA
NATIONAL WEATHER SERVICE TWIN CITIES/CHANHASSEN MN
1100 AM CDT WED APR 23 2014


NOTE: "FAIR" INDICATES FEW OR NO CLOUDS BELOW 12,000 FEET WITH NO
SIGNIFICANT WEATHER AND/OR OBSTRUCTIONS TO VISIBILITY. N/A MEANS
CURRENT SKY AND/OR WEATHER CONDITIONS ARE NOT AVAILABLE.

MNZ060>063-068>070-231700-
   Twin Cities Metro

CITY           SKY/WX    TMP DP  RH WIND       PRES   REMARKS
TWIN CITIES    CLOUDY    45  28  51 SE14      30.11R
ST PAUL        CLOUDY    48  29  47 SE13      30.12R
CRYSTAL        CLOUDY    48  27  44 SE15      30.09R
BLAINE         CLOUDY    48  28  46 SE17      30.10R
EDEN PRAIRIE   CLOUDY    48  29  47 S13       30.09R
LAKEVILLE      CLOUDY    45  30  57 S8        30.11R
SOUTH ST PAUL  CLOUDY    49  29  45 SE9       30.11R
LAKE ELMO      FAIR      46  30  53 S12       30.12R
$$
MNZ001>005-007-008-013>017-022>024-027-028-231700-
   Northwest Minnesota

CITY           SKY/WX    TMP DP  RH WIND       PRES   REMARKS
BEMIDJI        CLOUDY    48  25  40 SE17      29.99F
HALLOCK        CLOUDY    52  27  37 SE23      29.89F
ROSEAU         CLOUDY    54  27  35 SE15      29.97F
WARROAD        CLOUDY    50  28  43 SE18      30.00F
THIEF RVR FALL CLOUDY    52  25  35 SE17      29.92F
CROOKSTON      CLOUDY    50  28  43 SE22G30   29.90F
FOSSTON        CLOUDY    48  21  34 SE14G23   29.93F
DETROIT LAKES  DRIZZLE   43  36  75 SE18G28   29.93S
MOORHEAD       CLOUDY    45  43  93 SE23      29.88F
PARK RAPIDS    CLOUDY    47  26  44 SE20G26   29.98F
$$
MNZ006-009>011-018-025>026-231700-
   North Central Minnesota

CITY           SKY/WX    TMP DP  RH WIND       PRES   REMARKS
BAUDETTE       CLOUDY    50  26  39 S13G20    30.02F
FLAG ISLAND    PTSUNNY   45  25  45 SE8       30.02S
INTL FALLS     PTSUNNY   51  22  31 S8G20     30.06S
WASKISH        CLOUDY    52  27  37 SE17G23   30.01F
BIG FORK       CLOUDY    50  23  34 SE12G17   30.06S
LONGVILLE      CLOUDY    46  25  42 SE14G20   30.04S
GRAND RAPIDS   CLOUDY    46  23  39 S15       30.07S
CRANE LAKE     PTSUNNY   52  19  28 SE8       30.10S
ORR            PTSUNNY   50  19  29 S9        30.06S
COOK           PTSUNNY   48  23  37 S12G17    30.09S
$$
MNZ012-019>021-037-231700-
   Northeast Minnesota

CITY           SKY/WX    TMP DP  RH WIND       PRES   REMARKS
DULUTH         PTSUNNY   44  25  47 SE8       30.11F
ELY            PTSUNNY   48  19  32 SE7       30.09S
HIBBING        CLOUDY    49  24  37 S10G21    30.09F
EVELETH        CLOUDY    46  23  39 SE12      30.10F
DULUTH HARBOR  PTSUNNY   36  30  80 CALM      30.15F
TWO HARBORS    CLOUDY    45  27  49 CALM      30.12S
SILVER BAY     PTSUNNY   43  28  56 SE3       30.12S
GRAND MARAIS     N/A     39  28  64 CALM      30.16F
G MARAIS ARPRT MOSUNNY   45  21  39 SE6       30.13S
$$
MNZ029>031-032-039>041-046>048-054>057-064-231700-
   West Central Minnesota

CITY           SKY/WX    TMP DP  RH WIND       PRES   REMARKS
FERGUS FALLS   LGT RAIN  41  37  87 SE23G32   29.86F
WHEATON        CLOUDY    45  41  87 SE26G32   29.89F
MORRIS         DRIZZLE   43  37  81 SE25      29.91S
ALEXANDRIA     LGT RAIN  39  36  89 SE20G25   29.97F FOG
ELBOW LAKE     LGT RAIN  40  39  95 SE24G33   29.91F
WADENA         DRIZZLE   43  34  70 SE20G31   29.97F
GLENWOOD       DRIZZLE   39  37  93 SE20G28   29.97F
APPLETON       LGT RAIN  43  37  81 SE20G26   29.92R
BENSON         LGT RAIN  43  37  81 S16G25    29.95S
ORTONVILLE     RAIN      43  37  81 SE24G31   29.89F
MADISON        RAIN      46  43  87 SE21G28   29.93R
WILLMAR        RAIN      41  36  81 SE24      29.98F
$$
MNZ033>034-036-042>043-049>051-058-059-231700-
   Central Minnesota

CITY           SKY/WX    TMP DP  RH WIND       PRES   REMARKS
ST CLOUD       LGT RAIN  45  31  58 S13       30.06F
SAUK CENTRE    LGT RAIN  39  35  86 SE14      30.01F
PAYNESVILLE    LGT RAIN  40  36  85 SE12      30.02F
AITKIN         CLOUDY    48  25  40 SE7       30.05F
PINE RIVER     CLOUDY    46  28  49 SE12      30.06F
BRAINERD       CLOUDY    51  26  37 SE8       30.04F
STAPLES        CLOUDY    46  27  46 S20G26    30.00F
LONG PRAIRIE   CLOUDY    39  34  81 SE14      30.02F
LITTLE FALLS   CLOUDY    45  27  49 SE17      30.04F
LITCHFIELD     LGT RAIN  43  39  87 SE14      30.04S
BUFFALO        CLOUDY    46  28  49 SE8       30.07F
MAPLE LAKE     DRIZZLE   46  33  62 SE12      30.07F
$$
MNZ037-044-045-052-053-231700-
   East Central Minnesota

CITY           SKY/WX    TMP DP  RH WIND       PRES   REMARKS
PRINCETON      CLOUDY    48  25  40 SE12G17   30.08F
MORA           CLOUDY    45  28  53 SE8       30.10F
CAMBRIDGE      CLOUDY    48  30  49 SE12G18   30.07S
MOOSE LAKE     CLOUDY    48  27  43 SE8       30.08F
HINCKLEY       FAIR      46  27  46 SE8       30.11S
CLOQUET        PTSUNNY   45  25  45 E7        30.10F
MCGREGOR       CLOUDY    46  27  46 SE9G18    30.08F
$$
MNZ071>073-080-081-089-090-097-098-231700-
   Southwest Minnesota

CITY           SKY/WX    TMP DP  RH WIND       PRES   REMARKS
MONTEVIDEO     CLOUDY    43  39  87 S23G30    29.94S
GRANITE FALLS  CLOUDY    42  36  80 E23G30    29.94F
CANBY          CLOUDY    44  39  82 SE15      29.91S
MARSHALL       CLOUDY    45  36  70 SE18G24   29.90F
REDWOOD FALLS  CLOUDY    42  37  82 SE20      29.95F
OLIVIA         LGT RAIN  41  36  81 SE22G28   29.97F
PIPESTONE      CLOUDY    46  34  61 SE22G29   29.84F
WINDOM         CLOUDY    45  36  70 E22       29.92F
WORTHINGTON    CLOUDY    46  28  49 SE22G28   29.90R
JACKSON        CLOUDY    46  34  61 SE21G29   29.92F
TRACY          CLOUDY    46  37  70 SE17G29   29.91F
SLAYTON        CLOUDY    44  35  69 SE21      29.90R
$$
MNZ065>067-074>077-082>085-091>093-231700-
   South Central Minnesota

CITY           SKY/WX    TMP DP  RH WIND       PRES   REMARKS
MANKATO        CLOUDY    41  36  81 SE20      30.04F
NEW ULM        LGT RAIN  41  37  87 E14       30.00F
ST JAMES       CLOUDY    45  37  76 E22G30    29.98F
FAIRMONT       CLOUDY    45  34  65 SE20G28   29.99R
GLENCOE        LGT RAIN  45  33  65 SE12      30.06F
FARIBAULT      LGT RAIN  45  30  57 SE15G21   30.10R
OWATONNA       LGT RAIN  43  34  70 SE13      30.09R
WASECA         LGT RAIN  37  32  81 SE15G22   30.08F
ALBERT LEA     CLOUDY    45  30  57 SE15G26   30.06S
$$
MNZ078>079-086>088-094>096-231700-
   Southeast Minnesota

CITY           SKY/WX    TMP DP  RH WIND       PRES   REMARKS
ROCHESTER      CLOUDY    44  29  55 SE17      30.11R
RED WING       CLOUDY    48  27  43 SE12G17   30.11R
STANTON        CLOUDY    46  30  53 S8        30.10R
DODGE CENTER   DRIZZLE   45  32  61 SE15      30.09R
WINONA         CLOUDY    48  30  49 SE9       30.14R
AUSTIN         DRIZZLE   43  30  61 SE13G18   30.08F
PRESTON        CLOUDY    44  30  58 S15       30.12R
$$
ABBREVIATIONS USED IN REMARKS
   TC - TEMPERATURES IN CELSIUS
  WCI - WIND CHILL INDEX
   HX - HEAT INDEX
  VSB - VISIBILITY
$$


USA.gov is the U.S. government's official web portal to all federal, state and local government web resources and services.